Temp
-12 -12 -11 -11 -11 -12 -11 -11 -10 -9 -10 -9 -8 -8 -9 -8 -8 -6 -6 -6 -6 -7 -6 -7 -7 -6 -6 -6 -6 -6 -6 -6 -5 -5 -6 -6 -6 -5 -5 -5 -5 -5 -6 -6
-13 -13 -12 -11 -11 -11 -12 -11 -11 -10 -11 -8 -9 -7 -7 -10 -9 -8 -7 -7 -6 -7 -6 -8 -8 -7 -7 -7 -6 -6 -6 -6 -6 -5 -6 -6 -6 -6 -5 -5 -5 -5 -5 -5
-13 -13 -12 -11 -12 -11 -11 -11 -11 -11 -11 -11 -8 -8 -7 -10 -10 -10 -8 -7 -7 -7 -7 -7 -7 -7 -7 -6 -6 -6 -6 -7 -7 -6 -5 -6 -6 -5 -6 -6 -5 -5 -6 -6
-14 -13 -12 -13 -12 -11 -11 -11 -12 -12 -10 -8 -8 -8 -9 -10 -10 -9 -8 -9 -8 -8 -8 -8 -8 -7 -7 -6 -6 -6 -7 -7 -7 -6 -5 -5 -5 -6 -6 -6 -6 -6 -6 -6
-14 -13 -12 -13 -12 -12 -11 -11 -11 -11 -10 -8 -8 -8 -9 -10 -10 -10 -9 -8 -9 -9 -9 -8 -8 -8 -8 -7 -7 -7 -7 -8 -7 -7 -7 -6 -6 -6 -6 -6 -6 -6 -6 -7
-15 -14 -14 -14 -13 -13 -12 -11 -12 -11 -10 -10 -10 -10 -10 -10 -10 -10 -11 -10 -9 -9 -9 -9 -9 -8 -9 -8 -8 -7 -8 -8 -8 -8 -8 -6 -7 -6 -6 -7 -6 -6 -6 -6
-15 -15 -14 -14 -14 -13 -13 -12 -12 -10 -11 -11 -11 -10 -10 -11 -12 -10 -10 -9 -9 -9 -9 -9 -9 -9 -9 -9 -8 -8 -8 -8 -8 -8 -8 -8 -8 -8 -7 -6 -6 -7 -6 -6
-14 -15 -14 -13 -13 -14 -13 -13 -13 -13 -11 -10 -12 -13 -13 -13 -12 -11 -10 -10 -10 -9 -9 -9 -9 -9 -9 -9 -9 -9 -9 -9 -9 -9 -9 -9 -9 -9 -8 -8 -8 -8 -8 -8
-16 -14 -15 -14 -14 -15 -15 -15 -14 -13 -13 -13 -13 -13 -13 -13 -12 -11 -11 -11 -10 -10 -10 -10 -10 -10 -10 -10 -10 -9 -9 -9 -9 -9 -9 -9 -9 -9 -9 -9 -9 -8 -9 -9
-15 -15 -14 -14 -14 -15 -15 -14 -14 -14 -13 -14 -13 -13 -13 -13 -13 -12 -11 -11 -11 -11 -11 -11 -10 -10 -10 -10 -10 -10 -10 -10 -10 -9 -10 -10 -10 -9 -10 -10 -9 -9 -9 -9
-16 -15 -15 -15 -15 -15 -15 -15 -15 -14 -14 -13 -14 -14 -14 -14 -13 -12 -12 -12 -12 -12 -11 -11 -11 -11 -10 -11 -11 -11 -10 -10 -10 -10 -10 -10 -10 -10 -10 -10 -10 -10 -10 -10
-16 -15 -16 -15 -15 -15 -15 -15 -15 -15 -15 -15 -14 -14 -14 -14 -13 -13 -13 -13 -12 -12 -12 -12 -12 -12 -11 -11 -11 -11 -11 -10 -11 -11 -11 -11 -11 -11 -11 -11 -11 -11 -11 -10
-16 -16 -16 -15 -15 -15 -15 -15 -15 -15 -15 -15 -15 -15 -15 -14 -14 -14 -13 -13 -13 -13 -13 -12 -12 -12 -12 -12 -12 -11 -11 -11 -11 -11 -11 -11 -11 -11 -11 -11 -11 -11 -12 -12
-16 -16 -16 -16 -16 -16 -16 -15 -15 -15 -15 -15 -15 -16 -16 -15 -15 -14 -14 -14 -13 -13 -13 -13 -13 -13 -12 -12 -11 -12 -12 -11 -11 -11 -12 -12 -12 -12 -12 -11 -11 -11 -11 -11
-15 -15 -15 -15 -16 -16 -16 -16 -16 -16 -15 -15 -16 -15 -15 -15 -15 -15 -14 -14 -14 -14 -14 -14 -14 -13 -12 -12 -12 -13 -12 -12 -12 -12 -12 -12 -12 -12 -12 -12 -12 -12 -12 -12
-15 -15 -15 -15 -16 -16 -16 -16 -16 -17 -16 -16 -16 -16 -16 -16 -15 -15 -15 -15 -15 -15 -14 -14 -14 -14 -13 -13 -13 -13 -13 -13 -13 -12 -12 -12 -13 -13 -13 -12 -13 -13 -12 -12
-15 -15 -16 -16 -16 -16 -16 -16 -16 -17 -16 -17 -17 -17 -16 -16 -16 -16 -16 -16 -15 -15 -15 -15 -14 -15 -14 -14 -14 -14 -14 -14 -13 -13 -14 -14 -13 -14 -13 -13 -13 -14 -12 -12
-15 -15 -15 -16 -16 -16 -16 -16 -16 -17 -17 -17 -17 -16 -16 -17 -17 -17 -16 -16 -16 -16 -16 -16 -16 -15 -16 -16 -16 -16 -16 -16 -15 -15 -15 -15 -16 -15 -15 -15 -14 -15 -14 -14
-15 -15 -15 -16 -16 -16 -16 -16 -17 -17 -17 -16 -16 -16 -17 -17 -17 -17 -17 -17 -17 -17 -17 -17 -17 -17 -16 -16 -16 -16 -17 -16 -16 -17 -17 -17 -17 -16 -16 -16 -15 -16 -16 -17
-15 -15 -15 -16 -16 -16 -16 -17 -17 -17 -17 -17 -17 -17 -17 -17 -17 -18 -18 -18 -18 -18 -17 -18 -17 -17 -18 -18 -17 -17 -17 -17 -17 -17 -17 -17 -17 -17 -17 -17 -17 -17 -17 -17
-14 -15 -15 -16 -16 -16 -17 -17 -17 -17 -17 -17 -17 -17 -17 -17 -17 -17 -17 -18 -18 -18 -18 -18 -19 -18 -18 -18 -18 -18 -18 -18 -18 -18 -18 -18 -18 -18 -18 -18 -18 -18 -18 -18
-15 -15 -15 -15 -16 -16 -17 -17 -17 -17 -17 -18 -17 -17 -17 -17 -17 -17 -17 -18 -18 -18 -18 -19 -19 -19 -19 -19 -19 -19 -19 -19 -19 -19 -19 -19 -19 -19 -19 -19 -19 -19 -19 -19
-15 -15 -15 -15 -16 -16 -17 -17 -17 -18 -18 -18 -18 -17 -18 -18 -17 -18 -18 -18 -18 -18 -18 -18 -18 -18 -19 -19 -19 -19 -19 -19 -19 -19 -19 -19 -19 -19 -20 -20 -20 -20 -20 -20
-15 -15 -15 -15 -16 -16 -17 -17 -17 -17 -18 -18 -18 -18 -18 -18 -18 -18 -18 -17 -18 -19 -19 -18 -18 -19 -19 -19 -19 -19 -19 -20 -20 -20 -20 -20 -20 -20 -20 -20 -20 -20 -20 -20
-15 -15 -15 -15 -16 -16 -16 -17 -17 -17 -18 -18 -18 -18 -18 -18 -18 -18 -18 -18 -18 -19 -19 -19 -19 -19 -19 -19 -19 -20 -20 -20 -20 -20 -20 -21 -20 -21 -21 -21 -21 -21 -21 -21
-15 -15 -15 -16 -16 -16 -17 -17 -17 -17 -18 -18 -18 -19 -19 -19 -19 -19 -19 -19 -19 -20 -20 -20 -20 -20 -20 -20 -20 -20 -20 -20 -20 -21 -21 -21 -21 -21 -21 -22 -22 -22 -22 -22
-16 -16 -16 -16 -16 -17 -17 -17 -17 -18 -18 -18 -18 -18 -19 -19 -19 -19 -19 -19 -20 -20 -20 -20 -21 -21 -21 -21 -21 -21 -21 -21 -21 -21 -21 -21 -21 -22 -22 -22 -22 -22 -22 -22
Height
5814 5816 5819 5822 5824 5830 5838 5844 5850 5858 5850 5850 5851 5855 5861 5865 5865 5868 5875 5875 5877 5879 5879 5886 5881 5887 5891 5895 5899 5903 5907 5910 5912 5915 5917 5919 5922 5924 5927 5930 5932 5934 5937 5938
5807 5812 5814 5820 5821 5824 5832 5839 5844 5848 5849 5844 5837 5842 5847 5854 5856 5863 5867 5869 5873 5874 5878 5880 5884 5885 5887 5891 5892 5895 5899 5902 5905 5909 5911 5912 5916 5918 5920 5922 5924 5927 5930 5933
5803 5810 5807 5814 5817 5817 5828 5838 5840 5841 5833 5834 5838 5837 5827 5837 5850 5856 5858 5865 5869 5873 5874 5875 5875 5877 5881 5884 5887 5890 5892 5895 5897 5900 5904 5907 5908 5909 5910 5913 5916 5919 5923 5925
5798 5801 5805 5800 5807 5809 5808 5810 5821 5820 5822 5832 5832 5829 5834 5838 5848 5855 5858 5856 5861 5862 5865 5868 5869 5871 5876 5878 5880 5882 5885 5888 5890 5892 5895 5899 5901 5903 5906 5906 5909 5913 5913 5915
5789 5793 5797 5797 5803 5805 5806 5814 5809 5814 5824 5823 5822 5824 5829 5834 5841 5847 5849 5854 5854 5858 5858 5860 5864 5866 5868 5872 5874 5877 5880 5883 5884 5886 5887 5891 5894 5896 5897 5899 5902 5904 5905 5906
5786 5787 5785 5787 5792 5797 5803 5804 5807 5807 5811 5814 5815 5825 5830 5824 5831 5838 5842 5846 5849 5851 5854 5856 5859 5861 5863 5866 5868 5871 5871 5877 5878 5881 5883 5885 5888 5890 5891 5892 5891 5893 5895 5897
5782 5781 5781 5784 5788 5790 5793 5798 5801 5807 5808 5802 5795 5812 5801 5815 5822 5828 5833 5836 5840 5843 5846 5849 5851 5854 5857 5859 5864 5866 5867 5870 5873 5875 5877 5878 5880 5881 5883 5883 5883 5884 5885 5888
5778 5777 5778 5781 5780 5780 5785 5786 5791 5799 5807 5803 5797 5800 5803 5811 5818 5823 5826 5830 5832 5835 5838 5842 5845 5848 5850 5854 5855 5859 5862 5864 5867 5868 5870 5873 5874 5875 5877 5878 5878 5878 5878 5880
5770 5762 5771 5773 5773 5772 5775 5781 5784 5789 5790 5776 5787 5790 5796 5803 5810 5814 5816 5818 5822 5825 5828 5832 5836 5839 5842 5845 5848 5851 5855 5857 5859 5861 5863 5865 5866 5869 5871 5873 5873 5873 5874 5875
5771 5764 5766 5769 5768 5771 5771 5774 5775 5777 5779 5778 5784 5786 5791 5794 5799 5803 5806 5809 5812 5816 5819 5823 5826 5828 5832 5834 5838 5842 5845 5849 5851 5854 5856 5857 5858 5862 5863 5863 5864 5866 5868 5870
5765 5763 5764 5764 5763 5764 5766 5767 5769 5770 5770 5770 5776 5779 5782 5788 5792 5794 5795 5798 5802 5805 5809 5812 5814 5817 5820 5823 5826 5830 5834 5837 5841 5844 5845 5847 5850 5850 5853 5854 5856 5857 5859 5860
5758 5758 5758 5758 5760 5758 5758 5760 5763 5764 5765 5762 5767 5769 5772 5776 5779 5784 5786 5788 5792 5795 5797 5800 5803 5805 5808 5812 5815 5818 5822 5823 5828 5830 5833 5836 5838 5840 5842 5844 5846 5848 5850 5852
5753 5753 5752 5752 5753 5753 5753 5753 5754 5755 5757 5758 5758 5759 5762 5765 5768 5772 5776 5779 5781 5784 5787 5790 5792 5795 5798 5800 5803 5806 5809 5812 5815 5819 5823 5825 5827 5829 5831 5833 5834 5835 5837 5838
5749 5749 5748 5746 5746 5747 5747 5747 5748 5748 5751 5750 5751 5752 5754 5756 5758 5761 5765 5767 5770 5773 5775 5779 5783 5785 5787 5790 5793 5794 5796 5799 5802 5806 5808 5811 5813 5816 5818 5821 5822 5823 5825 5827
5746 5745 5743 5743 5741 5740 5740 5740 5740 5740 5743 5745 5744 5745 5746 5748 5749 5751 5753 5756 5759 5762 5765 5767 5769 5771 5776 5778 5777 5778 5781 5785 5788 5790 5793 5795 5799 5802 5804 5806 5808 5809 5811 5812
5742 5741 5740 5738 5737 5735 5734 5734 5734 5733 5733 5736 5737 5737 5737 5739 5740 5742 5743 5745 5748 5750 5753 5756 5759 5760 5761 5763 5764 5767 5770 5770 5774 5777 5777 5780 5782 5784 5786 5789 5793 5793 5795 5796
5739 5738 5736 5734 5733 5731 5730 5729 5728 5727 5726 5728 5729 5729 5729 5731 5731 5732 5733 5734 5737 5739 5741 5744 5746 5745 5747 5750 5751 5754 5755 5757 5760 5762 5761 5764 5766 5768 5770 5770 5773 5774 5776 5773
5735 5733 5732 5730 5729 5727 5726 5725 5723 5722 5721 5721 5721 5719 5714 5719 5721 5722 5723 5724 5726 5727 5729 5731 5733 5735 5736 5737 5739 5740 5743 5745 5745 5747 5749 5752 5753 5754 5755 5756 5757 5759 5762 5759
5731 5730 5728 5726 5724 5723 5721 5719 5718 5717 5716 5715 5716 5716 5714 5715 5713 5713 5713 5714 5715 5717 5718 5720 5722 5724 5725 5727 5729 5730 5731 5732 5733 5734 5735 5737 5739 5740 5741 5741 5741 5742 5745 5746
5727 5725 5723 5721 5719 5717 5715 5714 5713 5712 5710 5710 5710 5710 5709 5708 5707 5705 5704 5704 5705 5706 5709 5709 5710 5712 5712 5713 5715 5717 5719 5720 5722 5723 5725 5725 5725 5725 5726 5727 5728 5729 5729 5731
5723 5720 5718 5715 5713 5711 5709 5707 5706 5705 5703 5703 5702 5702 5702 5702 5700 5700 5699 5698 5699 5699 5698 5700 5702 5701 5702 5703 5704 5704 5705 5707 5708 5710 5712 5712 5712 5712 5712 5713 5715 5714 5715 5716
5718 5716 5713 5710 5708 5705 5703 5702 5700 5698 5697 5695 5694 5694 5694 5693 5693 5693 5692 5692 5691 5691 5692 5693 5693 5693 5693 5693 5694 5694 5693 5694 5695 5696 5697 5698 5698 5697 5698 5699 5699 5700 5701 5699
5712 5710 5708 5705 5702 5701 5697 5695 5694 5692 5690 5689 5688 5687 5686 5684 5685 5685 5684 5683 5683 5682 5683 5684 5683 5683 5683 5683 5683 5683 5683 5682 5683 5685 5685 5684 5684 5685 5685 5684 5684 5684 5684 5684
5706 5704 5702 5699 5696 5695 5692 5689 5688 5686 5684 5683 5682 5680 5679 5678 5677 5676 5674 5674 5675 5674 5672 5672 5673 5674 5674 5674 5673 5673 5673 5673 5674 5673 5673 5671 5671 5671 5670 5670 5670 5669 5669 5668
5700 5698 5696 5692 5690 5688 5686 5683 5680 5679 5677 5676 5675 5673 5672 5670 5669 5666 5665 5664 5664 5663 5662 5661 5662 5661 5661 5661 5661 5661 5660 5659 5659 5659 5658 5657 5656 5655 5655 5654 5653 5653 5653 5651
5692 5691 5689 5687 5684 5682 5680 5678 5674 5671 5670 5668 5667 5665 5663 5661 5660 5656 5655 5653 5653 5651 5650 5649 5651 5650 5649 5648 5648 5647 5647 5646 5645 5645 5643 5643 5643 5642 5640 5639 5638 5637 5637 5636
5684 5682 5681 5681 5678 5675 5672 5670 5667 5666 5664 5659 5657 5656 5655 5652 5651 5649 5648 5646 5644 5643 5642 5641 5640 5638 5638 5637 5636 5635 5634 5632 5630 5629 5628 5629 5628 5627 5625 5624 5624 5623 5624 5623
Wind_Speed
27 26 31 25 26 20 25 19 21 12 23 25 33 20 16 22 27 24 22 21 25 25 27 26 30 24 30 25 22 23 23 25 24 25 25 23 18 23 25 25 25 26 24 23
22 17 27 32 17 19 18 23 23 28 22 35 24 31 32 32 33 32 29 25 28 32 30 20 21 24 25 21 31 30 32 24 24 26 26 28 31 23 26 28 28 28 28 26
37 21 23 27 32 18 16 19 24 26 33 33 37 41 18 31 26 28 36 35 30 31 29 23 20 23 20 24 25 31 26 28 34 37 36 34 28 32 32 31 28 27 28 28
21 37 21 30 36 38 31 33 30 36 32 36 35 47 48 28 37 34 35 32 31 29 24 24 24 23 21 21 21 22 25 29 33 33 33 32 29 27 33 36 32 32 30 29
24 32 47 31 29 31 36 39 33 32 32 53 51 46 44 45 40 40 38 41 35 28 26 27 26 25 27 23 18 19 18 17 18 13 17 19 26 32 33 33 40 39 35 40
25 24 25 40 41 41 32 41 41 49 48 44 47 51 42 49 31 31 33 40 41 37 32 31 32 33 30 27 27 29 28 18 15 19 19 20 21 25 31 37 46 45 44 41
18 26 24 22 35 35 43 46 54 51 51 51 39 34 18 35 26 31 38 42 43 41 39 37 35 37 35 33 30 26 22 21 21 19 22 23 23 25 26 28 39 35 34 41
20 30 35 25 28 15 23 30 42 36 50 41 64 31 22 29 35 37 39 43 45 46 46 44 44 41 39 38 34 32 31 26 26 24 25 26 24 21 19 19 19 21 24 27
24 10 18 24 32 26 22 27 29 45 52 49 30 36 35 32 34 36 38 38 41 43 46 46 46 44 45 43 42 41 35 32 33 31 30 30 36 36 26 24 23 22 21 19
20 29 25 24 25 22 19 20 26 35 40 36 32 43 30 33 31 34 38 40 40 40 41 44 46 47 48 49 48 47 45 41 40 39 36 32 31 31 30 30 30 29 29 29
19 26 25 22 25 23 21 21 22 23 36 43 39 37 38 39 37 36 39 41 40 40 40 41 42 44 45 46 47 46 44 43 43 45 43 39 38 37 36 35 33 31 33 34
21 23 22 22 20 24 26 23 23 23 23 34 41 41 40 41 41 42 38 42 41 41 42 41 40 43 43 42 43 45 44 37 45 38 38 39 39 38 38 38 38 38 38 39
16 15 20 22 19 21 25 25 24 26 25 24 26 31 44 43 41 43 44 42 41 40 40 41 42 42 43 44 44 45 47 50 48 47 47 45 43 43 42 42 41 41 42 43
15 14 16 18 20 19 22 24 25 29 27 29 29 26 25 41 44 43 45 46 44 44 44 43 45 44 46 43 43 48 51 48 47 47 51 47 46 48 48 48 48 49 49 49
15 15 15 13 15 16 19 22 24 26 26 26 30 31 31 31 32 38 44 47 47 46 45 43 44 46 43 46 40 40 50 52 42 52 56 49 48 52 53 53 52 56 57 56
14 15 16 15 15 16 16 17 19 24 24 24 26 27 30 32 34 36 36 37 38 39 40 36 39 47 49 44 45 41 36 41 45 47 47 47 48 46 48 58 59 66 63 62
14 14 15 15 16 17 18 18 17 18 21 19 19 21 28 32 33 35 38 39 39 39 39 40 47 48 43 40 41 42 42 48 49 51 45 48 51 53 54 52 57 59 77 70
15 17 18 18 17 17 17 18 19 19 20 16 18 21 19 22 29 33 37 39 40 40 42 43 44 45 44 44 46 48 48 47 49 44 42 44 40 42 43 42 46 59 65 64
17 18 20 19 20 21 20 19 19 20 21 20 18 19 24 22 24 26 28 31 36 37 37 40 42 43 43 43 43 42 38 39 42 45 46 48 46 44 46 47 49 48 44 39
16 19 22 21 20 22 22 21 19 19 21 21 21 20 21 22 21 21 22 25 28 31 35 36 37 37 37 36 36 36 36 36 38 39 38 39 39 41 41 41 41 42 43 44
16 18 21 21 21 24 20 18 18 19 20 21 21 21 20 22 24 23 23 23 22 23 26 28 30 34 35 36 36 36 37 37 38 40 41 43 43 43 44 45 46 48 49 49
17 19 20 21 20 20 18 18 20 19 20 20 21 22 24 24 25 25 25 26 27 26 25 24 26 28 31 33 34 34 34 35 36 38 40 42 44 46 46 46 46 47 48 50
22 18 20 22 21 18 20 21 18 18 19 19 22 23 25 29 27 27 28 30 31 31 28 28 30 30 29 30 30 31 33 35 37 38 39 40 40 41 43 45 46 46 48 47
18 19 20 22 22 19 21 20 18 18 18 20 20 21 22 23 25 28 30 31 31 32 34 35 35 33 33 33 34 35 36 37 38 38 39 38 39 41 43 44 45 47 48 50
20 19 19 22 23 21 22 22 21 20 19 21 20 22 23 23 25 29 30 31 29 31 35 37 37 37 37 37 37 38 39 40 38 38 39 39 43 43 43 45 44 43 43 44
21 21 21 23 25 23 22 22 24 22 20 21 21 22 25 27 25 28 28 29 27 28 30 31 31 33 35 36 36 36 36 36 37 37 37 38 40 40 41 39 41 42 41 40
24 24 24 24 25 24 23 25 24 23 20 23 25 23 22 24 21 22 21 22 24 24 26 28 30 31 30 30 31 33 35 36 38 38 37 36 38 38 42 42 41 37 33 35
Wind_Direction
218 223 215 217 205 209 227 226 214 201 258 260 254 260 213 227 233 227 214 218 235 219 234 234 249 256 245 242 231 228 250 250 242 244 244 243 243 251 252 252 251 251 247 249
211 225 227 220 191 191 228 224 221 210 235 234 258 228 238 215 221 225 223 219 230 221 227 240 247 251 245 245 243 238 242 243 248 249 249 254 247 251 256 252 251 255 251 251
214 234 229 231 226 198 186 217 232 227 242 238 229 236 179 189 215 229 227 218 213 222 226 228 245 254 247 247 230 244 248 257 262 258 263 263 270 243 261 250 253 253 246 251
227 217 231 227 206 216 191 194 195 212 219 219 225 239 248 246 207 221 230 227 219 219 225 235 243 253 263 253 252 248 259 254 264 262 263 268 266 253 246 256 253 256 253 249
231 213 216 238 229 215 222 217 200 210 219 226 229 234 253 254 221 219 219 231 234 235 239 240 242 251 258 259 266 235 257 253 250 263 262 254 247 250 257 251 255 248 250 250
238 245 250 225 227 226 226 225 203 213 222 228 232 241 243 208 212 223 231 230 235 242 243 240 240 244 246 249 256 256 253 277 265 259 254 254 256 253 248 246 249 247 250 252
231 263 246 266 226 236 239 239 236 234 223 228 245 221 218 209 222 227 232 236 238 240 241 239 238 238 239 243 246 255 258 249 255 262 257 253 254 256 254 253 247 252 257 258
246 236 252 261 228 209 233 233 224 229 228 267 237 257 255 241 235 237 232 232 235 238 239 239 237 240 244 245 247 252 255 251 254 260 263 257 253 262 271 267 261 253 254 252
256 258 241 254 264 284 281 262 246 229 228 260 260 253 237 237 237 236 238 239 236 238 241 241 241 242 244 245 248 251 251 251 251 254 259 261 265 273 270 269 273 272 263 262
264 276 266 269 266 267 268 265 256 252 253 254 250 259 247 240 237 240 239 240 241 240 241 243 245 246 247 249 249 252 257 257 252 251 254 260 263 263 255 253 255 260 257 254
268 267 267 266 271 274 267 264 263 266 255 256 253 254 246 246 245 246 243 243 244 246 247 245 246 246 248 252 255 255 254 252 251 251 252 252 251 252 256 254 256 258 254 251
270 272 277 268 265 267 269 265 262 262 261 255 246 248 249 246 245 245 244 244 245 246 245 247 248 248 248 249 250 251 249 251 239 246 247 249 250 251 254 255 253 256 256 254
280 279 272 273 266 261 262 263 261 260 261 264 260 257 242 246 245 242 243 244 246 247 244 244 248 248 246 248 252 255 254 250 251 251 254 251 252 254 256 256 257 258 259 257
286 288 280 283 278 271 265 263 261 258 253 258 259 263 260 244 243 243 243 244 246 249 250 249 248 248 249 249 258 257 253 252 252 251 252 246 249 254 256 257 260 262 262 260
281 291 296 298 288 287 275 268 264 262 256 254 257 255 252 252 250 249 249 249 250 252 253 253 252 250 250 247 257 257 254 250 247 253 254 257 256 256 255 259 258 259 260 260
284 286 290 293 293 294 291 284 276 272 268 260 257 257 256 256 252 252 253 254 254 254 253 253 256 252 249 253 255 258 256 255 246 247 254 252 256 261 264 259 262 262 259 258
290 290 290 291 290 289 291 292 291 286 286 277 270 265 259 256 256 256 254 256 256 256 255 251 251 259 255 255 256 249 254 252 254 255 255 262 263 265 267 269 268 272 262 253
294 295 294 293 293 293 292 290 290 291 294 294 277 263 243 262 262 256 256 256 256 258 258 258 260 261 267 270 274 275 271 272 254 258 258 261 267 269 265 268 266 262 260 266
294 294 295 300 300 298 292 291 291 289 288 288 282 274 277 270 272 269 263 259 256 255 255 258 261 263 265 267 267 270 272 272 277 283 287 288 289 287 287 287 287 286 284 288
299 295 295 295 299 303 300 292 289 289 286 282 280 277 278 280 280 280 280 274 266 263 259 259 262 263 266 269 269 269 271 271 267 264 260 260 261 265 268 267 266 266 269 273
301 302 301 300 295 300 304 291 289 291 286 283 276 272 270 271 273 276 277 275 275 274 269 263 260 265 266 268 270 273 274 272 267 262 259 261 261 261 263 264 265 267 267 266
295 296 299 299 302 302 298 292 293 288 287 282 276 271 271 270 271 274 276 277 277 273 271 269 267 269 267 267 269 271 270 267 267 266 263 262 262 265 265 265 266 266 267 270
275 292 295 294 300 299 297 302 295 288 281 280 283 281 277 271 271 272 271 270 271 273 276 274 271 271 272 273 271 270 270 273 272 270 268 266 264 262 262 266 268 269 270 270
294 287 290 291 295 302 302 303 297 293 284 277 284 280 278 278 279 277 275 276 275 273 270 269 270 271 272 271 271 272 272 271 271 272 274 272 272 271 270 268 268 270 271 272
298 286 292 290 289 293 302 304 303 299 290 281 278 279 282 284 286 285 284 280 279 274 271 268 268 270 271 272 273 273 273 274 274 272 273 273 275 276 274 275 275 274 274 275
286 284 283 289 289 290 297 299 299 303 297 289 285 287 291 291 292 289 285 283 283 278 276 276 273 271 272 273 274 275 276 277 276 276 276 276 275 274 273 273 275 278 278 277
292 282 275 287 289 291 301 305 299 298 300 297 296 297 294 287 294 295 290 284 282 283 281 279 278 277 275 274 276 279 282 283 282 280 277 273 272 272 273 275 274 274 277 279